period_start,C,m1,H,J0,J1,J2,J3,J4,J5,JA,JB,JC,JD,JJ,JK,JN,#
2017-05-02 00:02:06,0.05,0.85,0.00,24.07,26.77,30.34,14.41,48.42,1015.12,2032.00,3131.23,2869.14,3273.78,599.93,593.10,25.78,0000 0000 0000 0000 000000
2017-05-02 00:07:07,0.03,0.86,0.00,23.79,26.77,30.34,14.43,48.40,1015.14,2032.00,3130.31,2868.90,3273.03,599.90,593.58,25.83,0000 0000 0000 0000 000000
2017-05-02 00:12:09,0.05,0.86,0.00,23.54,26.77,30.41,14.43,48.38,1015.14,2032.00,3129.46,2868.10,3272.31,599.95,594.04,25.88,0000 0000 0000 0000 000000
2017-05-02 00:17:10,0.01,0.86,0.00,23.44,26.75,30.47,14.49,48.47,1015.14,2032.00,3128.83,2867.96,3271.97,599.94,594.32,25.93,0000 0000 0000 0000 000000
2017-05-02 00:22:11,0.05,0.86,0.00,23.39,26.74,30.44,14.50,48.48,1015.13,2032.00,3128.04,2867.38,3271.30,599.86,594.21,25.98,0000 0000 0000 0000 000000
2017-05-02 00:27:13,0.02,0.86,0.00,23.58,26.72,30.37,14.43,48.43,1015.14,2032.00,3127.28,2867.00,3270.94,600.05,594.16,26.04,0000 0000 0000 0000 000000
2017-05-02 00:32:14,0.05,0.87,0.00,23.58,26.72,30.20,14.42,48.48,1015.15,2032.00,3126.71,2866.41,3270.12,600.00,594.01,26.09,0000 0000 0000 0000 000000
2017-05-02 00:37:15,0.03,0.87,0.00,23.67,26.73,30.17,14.43,48.60,1015.15,2032.00,3125.74,2865.90,3269.55,599.97,593.76,26.14,0000 0000 0000 0000 000000
2017-05-02 00:42:16,0.03,0.87,0.00,23.90,26.75,30.24,14.43,48.50,1015.15,2032.00,3125.00,2865.10,3268.93,599.74,593.13,26.19,0000 0000 0000 0000 000000
2017-05-02 00:47:18,0.03,0.87,0.00,24.03,26.75,30.26,14.42,48.51,1015.15,2032.00,3124.18,2864.87,3268.10,600.03,592.98,26.24,0000 0000 0000 0000 000000
2017-05-02 00:52:18,0.05,0.87,0.00,24.04,26.77,30.28,14.42,48.53,1015.15,2032.00,3123.25,2864.07,3267.48,600.00,593.17,26.29,0000 0000 0000 0000 000000
2017-05-02 00:57:20,0.02,0.88,0.00,24.16,26.77,30.32,14.34,48.39,1015.15,2032.00,3122.59,2863.83,3266.96,599.78,592.63,26.34,0000 0000 0000 0000 000000
2017-05-02 01:02:21,0.05,0.88,0.00,24.16,26.77,30.33,14.36,48.43,1015.17,2032.00,3121.71,2863.07,3266.11,599.93,592.80,26.39,0000 0000 0000 0000 000000
2017-05-02 01:07:22,0.04,0.88,0.00,24.18,26.79,30.32,14.41,48.32,1015.15,2032.00,3120.85,2862.56,3265.50,599.87,592.62,26.44,0000 0000 0000 0000 000000
2017-05-02 01:12:23,0.02,0.88,0.00,24.23,26.80,30.33,14.37,48.33,1015.16,2032.00,3120.01,2862.00,3264.96,599.83,592.65,26.49,0000 0000 0000 0000 000000
2017-05-02 01:17:25,0.05,0.88,0.00,24.25,26.80,30.32,14.51,48.48,1015.17,2032.00,3119.15,2861.44,3264.15,600.63,593.31,26.54,0000 0000 0000 0000 000000
2017-05-02 01:22:26,0.03,0.89,0.00,24.24,26.80,30.31,14.35,48.39,1015.25,2032.00,3118.26,2861.00,3263.64,599.93,592.64,26.59,0000 0000 0000 0000 000000
2017-05-02 01:27:27,0.04,0.89,0.00,24.23,26.80,30.29,14.44,48.39,1015.52,2031.99,3117.50,2860.41,3263.02,600.32,593.24,26.64,0000 0000 0000 0000 000000
2017-05-02 01:32:29,0.03,0.89,0.00,24.10,26.79,30.28,14.42,48.45,1015.56,2031.99,3116.57,2859.95,3262.28,599.98,593.19,26.69,0000 0000 0000 0000 000000
2017-05-02 01:37:30,0.04,0.89,0.00,23.92,26.78,30.31,14.38,48.27,1015.61,2031.99,3115.77,2859.15,3261.86,599.95,593.56,26.74,0000 0000 0000 0000 000000
2017-05-02 01:42:31,0.02,0.89,0.00,24.01,26.77,30.30,14.38,48.38,1015.64,2031.99,3115.01,2858.94,3261.08,600.04,593.50,26.79,0000 0000 0000 0000 000000
2017-05-02 01:47:33,0.06,0.90,0.00,24.02,26.77,30.27,14.39,48.42,1015.64,2031.99,3114.14,2858.13,3260.47,599.84,593.36,26.84,0000 0000 0000 0000 000000
2017-05-02 01:52:34,0.02,0.90,0.00,24.16,26.77,30.26,14.40,48.36,1015.64,2031.99,3113.31,2857.88,3259.94,600.11,593.33,26.89,0000 0000 0000 0000 000000
2017-05-02 01:57:35,0.05,0.90,0.00,24.21,26.78,30.27,14.38,48.45,1015.64,2031.99,3112.41,2857.07,3259.11,599.82,592.85,26.94,0000 0000 0000 0000 000000
2017-05-02 02:02:36,0.04,0.90,0.00,24.23,26.79,30.26,14.32,48.44,1015.64,2031.99,3111.67,2856.66,3258.53,599.68,592.69,26.99,0000 0000 0000 0000 000000
2017-05-02 02:07:37,0.02,0.90,0.00,24.22,26.80,30.26,14.43,48.40,1015.65,2031.99,3110.85,2856.02,3257.97,599.70,592.88,27.04,0000 0000 0000 0000 000000
2017-05-02 02:12:39,0.05,0.91,0.00,24.26,26.80,30.27,14.44,48.44,1015.65,2031.99,3109.94,2855.53,3257.16,599.69,592.69,27.09,0000 0000 0000 0000 000000
2017-05-02 02:17:40,0.04,0.91,0.00,24.28,26.80,30.28,14.40,48.50,1015.68,2031.99,3109.00,2854.90,3256.36,600.01,592.85,27.14,0000 0000 0000 0000 000000
2017-05-02 02:22:41,0.04,0.91,0.00,24.24,26.80,30.27,14.32,48.42,1015.70,2031.99,3108.10,2854.13,3255.86,599.95,593.05,27.19,0000 0000 0000 0000 000000
2017-05-02 02:27:42,0.03,0.91,0.00,24.22,26.80,30.25,14.40,48.29,1015.68,2031.99,3107.28,2853.84,3255.07,600.00,592.95,27.24,0000 0000 0000 0000 000000
2017-05-02 02:32:44,0.05,0.92,0.00,24.28,26.80,30.28,14.40,48.37,1015.71,2031.99,3106.62,2853.07,3254.38,600.15,593.10,27.29,0000 0000 0000 0000 000000
2017-05-02 02:37:45,0.04,0.92,0.00,24.28,26.80,30.28,14.37,48.39,1015.88,2031.99,3105.67,2852.66,3253.81,599.45,592.55,27.34,0000 0000 0000 0000 000000
2017-05-02 02:42:47,0.03,0.92,0.00,24.28,26.80,30.25,14.42,48.41,1016.04,2031.99,3104.88,2852.02,3253.04,599.90,593.15,27.39,0000 0000 0000 0000 000000
2017-05-02 02:47:48,0.05,0.92,0.00,24.29,26.80,30.24,14.35,48.36,1016.10,2031.98,3103.94,2851.58,3252.41,599.80,593.08,27.44,0000 0000 0000 0000 000000
2017-05-02 02:52:49,0.05,0.92,0.00,24.36,26.80,30.25,14.48,48.44,1016.12,2031.99,3102.94,2850.82,3251.53,600.20,593.20,27.49,0000 0000 0000 0000 000000
2017-05-02 02:57:50,0.04,0.93,0.00,24.30,26.80,30.24,14.42,48.42,1016.13,2031.99,3102.03,2850.04,3250.96,599.65,592.85,27.54,0000 0000 0000 0000 000000
2017-05-02 03:02:51,0.05,0.93,0.00,24.32,26.80,30.23,14.45,48.36,1016.13,2031.99,3101.13,2849.66,3250.14,600.02,593.10,27.59,0000 0000 0000 0000 000000
2017-05-02 03:07:52,0.04,0.93,0.00,24.37,26.81,30.24,14.43,48.35,1016.13,2031.98,3100.32,2849.01,3249.57,600.17,593.10,27.64,0000 0000 0000 0000 000000
2017-05-02 03:12:54,0.04,0.93,0.00,24.34,26.82,30.23,14.38,48.47,1016.13,2031.98,3099.48,2848.45,3248.99,599.79,592.83,27.69,0000 0000 0000 0000 000000
2017-05-02 03:17:55,0.03,0.94,0.00,24.35,26.82,30.20,14.36,48.35,1016.13,2031.99,3098.70,2848.00,3248.25,600.06,592.95,27.74,0000 0000 0000 0000 000000
2017-05-02 03:22:57,0.05,0.94,0.00,24.37,26.82,30.22,14.37,48.43,1016.13,2031.99,3097.79,2847.39,3247.67,599.90,592.84,27.79,0000 0000 0000 0000 000000
2017-05-02 03:27:58,0.03,0.94,0.00,24.37,26.82,30.21,14.36,48.51,1016.13,2031.99,3096.86,2846.84,3246.96,599.86,592.88,27.84,0000 0000 0000 0000 000000
2017-05-02 03:32:59,0.05,0.94,0.00,24.39,26.82,30.23,14.36,48.41,1016.14,2031.99,3095.96,2846.04,3246.12,599.98,593.03,27.89,0000 0000 0000 0000 000000
2017-05-02 03:38:01,0.05,0.94,0.00,24.38,26.82,30.21,14.36,48.55,1016.14,2031.99,3095.07,2845.55,3245.53,599.95,592.85,27.94,0000 0000 0000 0000 000000
2017-05-02 03:43:02,0.03,0.95,0.00,24.36,26.82,30.20,14.36,48.30,1016.14,2031.99,3094.14,2844.99,3244.84,600.09,593.13,27.99,0000 0000 0000 0000 000000
2017-05-02 03:48:03,0.05,0.95,0.00,24.41,26.83,30.20,14.41,48.39,1016.19,2031.99,3093.23,2844.37,3244.05,600.50,593.35,28.04,0000 0000 0000 0000 000000
2017-05-02 03:53:05,0.03,0.95,0.00,24.43,26.83,30.19,14.49,48.51,1016.41,2031.99,3092.31,2843.99,3243.44,600.49,593.50,28.09,0000 0000 0000 0000 000000
2017-05-02 03:58:06,0.05,0.95,0.00,24.42,26.84,30.20,14.39,48.38,1016.48,2031.99,3091.43,2843.22,3242.90,600.31,593.40,28.14,0000 0000 0000 0000 000000
2017-05-02 04:03:08,0.04,0.96,0.00,24.40,26.85,30.18,14.40,48.44,1016.60,2031.99,3090.58,2842.87,3242.09,600.12,593.22,28.19,0000 0000 0000 0000 000000
2017-05-02 04:08:09,0.05,0.96,0.00,24.39,26.85,30.19,14.37,48.48,1016.61,2031.99,3089.65,2842.09,3241.41,599.65,592.87,28.24,0000 0000 0000 0000 000000
2017-05-02 04:13:10,0.05,0.96,0.00,24.40,26.85,30.21,14.42,48.57,1016.62,2031.99,3088.66,2841.54,3240.65,600.22,593.45,28.29,0000 0000 0000 0000 000000
2017-05-02 04:18:12,0.02,0.96,0.00,24.42,26.85,30.22,14.38,48.43,1016.62,2031.99,3087.82,2840.99,3239.95,600.08,593.17,28.34,0000 0000 0000 0000 000000
2017-05-02 04:23:13,0.06,0.97,0.00,24.41,26.85,30.21,14.44,48.45,1016.62,2031.98,3086.84,2840.27,3239.11,600.25,593.50,28.39,0000 0000 0000 0000 000000
2017-05-02 04:28:14,0.04,0.97,0.00,24.35,26.86,30.22,14.41,48.49,1016.63,2031.98,3085.83,2839.80,3238.35,600.09,593.27,28.44,0000 0000 0000 0000 000000
2017-05-02 04:33:15,0.04,0.97,0.00,24.42,26.87,30.23,14.40,48.49,1016.62,2031.99,3084.94,2839.06,3237.76,599.98,593.17,28.49,0000 0000 0000 0000 000000
2017-05-02 04:38:16,0.05,0.97,0.00,24.35,26.87,30.22,14.44,48.52,1016.63,2031.99,3083.98,2838.62,3236.97,600.35,593.65,28.54,0000 0000 0000 0000 000000
2017-05-02 04:43:17,0.03,0.97,0.00,24.39,26.87,30.21,14.43,48.52,1016.63,2031.99,3083.05,2838.00,3236.12,600.52,593.77,28.59,0000 0000 0000 0000 000000
2017-05-02 04:48:18,0.06,0.98,0.00,24.45,26.87,30.20,14.33,48.46,1016.63,2031.99,3082.08,2837.32,3235.47,599.80,593.13,28.64,0000 0000 0000 0000 000000
2017-05-02 04:53:20,0.03,0.98,0.00,24.38,26.87,30.22,14.42,48.43,1016.63,2031.98,3081.06,2836.86,3234.71,599.94,593.21,28.69,0000 0000 0000 0000 000000
2017-05-02 04:58:21,0.05,0.98,0.00,24.39,26.88,30.22,14.48,48.48,1016.63,2031.98,3080.15,2836.09,3234.00,600.19,593.50,28.74,0000 0000 0000 0000 000000
2017-05-02 05:03:22,0.05,0.98,0.00,24.37,26.89,30.22,14.45,48.52,1016.65,2031.98,3079.15,2835.64,3233.16,600.08,593.43,28.79,0000 0000 0000 0000 000000
2017-05-02 05:08:23,0.04,0.99,0.00,24.39,26.90,30.24,14.40,48.52,1016.87,2031.98,3078.18,2835.01,3232.60,600.03,593.48,28.84,0000 0000 0000 0000 000000
2017-05-02 05:13:25,0.05,0.99,0.00,24.39,26.90,30.22,14.44,48.63,1017.06,2031.99,3077.30,2834.37,3231.79,599.73,593.25,28.89,0000 0000 0000 0000 000000
2017-05-02 05:18:26,0.03,0.99,0.00,24.43,26.90,30.24,14.43,48.64,1017.10,2031.97,3076.30,2833.92,3231.00,600.07,593.44,28.94,0000 0000 0000 0000 000000
2017-05-02 05:23:28,0.06,0.99,0.00,24.39,26.90,30.24,14.40,48.61,1017.10,2031.98,3075.36,2833.12,3230.15,599.99,593.59,28.99,0000 0000 0000 0000 000000
2017-05-02 05:28:29,0.04,0.99,0.00,24.39,26.91,30.26,14.35,48.55,1017.10,2031.99,3074.39,2832.70,3229.51,599.80,593.31,29.05,0000 0000 0000 0000 000000
2017-05-02 05:33:30,0.04,1.00,0.00,24.41,26.92,30.24,14.41,48.43,1017.10,2031.98,3073.38,2832.01,3228.78,600.38,593.86,29.10,0000 0000 0000 0000 000000
2017-05-02 05:38:32,0.05,1.00,0.00,24.42,26.92,30.24,14.42,48.50,1017.10,2031.98,3072.48,2831.44,3228.04,600.13,593.61,29.15,0000 0000 0000 0000 000000
2017-05-02 05:43:33,0.03,1.00,0.00,24.41,26.92,30.25,14.47,48.65,1017.10,2031.97,3071.53,2830.93,3227.19,600.08,593.60,29.20,0000 0000 0000 0000 000000
2017-05-02 05:48:34,0.05,1.00,0.00,24.36,26.94,30.24,14.46,48.58,1017.11,2031.93,3070.71,2830.12,3226.46,600.01,593.61,29.25,0000 0000 0000 0000 000000
2017-05-02 05:53:35,0.03,1.01,0.00,24.35,26.95,30.26,14.47,48.65,1017.13,2031.96,3069.82,2829.74,3225.86,600.27,593.93,29.30,0000 0000 0000 0000 000000
2017-05-02 05:58:37,0.04,1.01,0.00,24.38,26.95,30.27,14.44,48.57,1017.20,2031.92,3068.80,2829.02,3225.02,600.36,593.94,29.35,0000 0000 0000 0000 000000
2017-05-02 06:03:38,0.05,1.01,0.00,24.40,26.95,30.27,14.44,48.65,1017.38,2031.81,3067.84,2828.33,3224.12,599.97,593.58,29.40,0000 0000 0000 0000 000000
2017-05-02 06:08:39,0.03,1.01,0.00,24.38,26.96,30.27,14.45,48.73,1017.50,2031.74,3066.79,2827.86,3223.43,599.71,593.50,29.45,0000 0000 0000 0000 000000
2017-05-02 06:13:41,0.04,1.02,0.00,24.30,26.97,30.27,14.43,48.63,1017.51,2031.68,3065.87,2827.09,3222.73,600.23,594.10,29.50,0000 0000 0000 0000 000000
2017-05-02 06:18:42,0.03,1.02,0.00,24.26,26.97,30.27,14.44,48.60,1017.56,2031.60,3064.90,2826.67,3221.98,600.05,594.03,29.55,0000 0000 0000 0000 000000
2017-05-02 06:23:43,0.05,1.02,0.00,24.40,26.97,30.28,14.46,48.73,1017.58,2031.59,3064.00,2826.02,3221.16,600.10,593.83,29.60,0000 0000 0000 0000 000000
2017-05-02 06:28:45,0.06,1.02,0.00,24.40,26.97,30.25,14.47,48.63,1017.59,2031.66,3063.06,2825.51,3220.58,600.31,594.18,29.65,0000 0000 0000 0000 000000
2017-05-02 06:33:46,0.02,1.02,0.00,24.40,26.98,30.27,14.44,48.60,1017.59,2031.62,3062.03,2824.94,3219.81,600.09,593.88,29.70,0000 0000 0000 0000 000000
2017-05-02 06:38:47,0.04,1.03,0.00,24.42,26.98,30.33,14.40,48.63,1017.63,2031.41,3061.08,2824.12,3219.01,600.09,593.81,29.75,0000 0000 0000 0000 000000
2017-05-02 06:43:49,0.03,1.03,0.00,24.33,26.98,30.32,14.36,48.58,1017.78,2031.32,3060.11,2823.77,3218.21,600.00,594.01,29.80,0000 0000 0000 0000 000000
2017-05-02 06:48:50,0.05,1.03,0.00,24.09,26.97,30.33,14.41,48.77,1018.02,2031.38,3059.15,2823.05,3217.62,599.67,594.34,29.85,0000 0000 0000 0000 000000
2017-05-02 06:53:51,0.04,1.03,0.00,23.68,26.97,30.38,14.55,48.86,1018.07,2031.46,3058.18,2822.66,3216.92,600.10,595.63,29.90,0000 0000 0000 0000 000000
2017-05-02 06:58:53,0.07,1.04,0.00,23.44,26.95,30.33,14.56,48.83,1018.08,2031.60,3057.14,2822.02,3216.09,600.32,596.29,29.95,0000 0000 0000 0000 000000
2017-05-02 07:03:54,0.06,1.04,0.00,23.16,26.92,30.22,14.54,49.00,1018.08,2031.80,3056.17,2821.63,3215.63,600.00,596.54,30.00,0000 0000 0000 0000 000000
2017-05-02 07:08:56,0.03,1.04,0.00,22.95,26.89,30.14,14.60,48.90,1018.08,2031.94,3055.37,2821.02,3215.01,600.01,597.02,30.05,0000 0000 0000 0000 000000
2017-05-02 07:13:57,0.04,1.04,0.00,22.74,26.86,30.28,14.66,48.97,1018.08,2031.98,3054.57,2820.88,3214.41,600.36,597.59,30.10,0000 0000 0000 0000 000000
2017-05-02 07:18:58,0.03,1.05,0.00,22.56,26.82,30.28,14.54,48.98,1018.08,2031.99,3053.81,2820.19,3214.00,599.96,597.87,30.15,0000 0000 0000 0000 000000
2017-05-02 07:24:00,0.02,1.05,0.00,22.38,26.78,30.26,14.63,49.03,1018.08,2031.99,3052.96,2820.00,3213.57,599.72,597.85,30.20,0000 0000 0000 0000 000000
2017-05-02 07:29:01,0.03,1.05,0.00,22.20,26.73,30.14,14.62,48.97,1018.08,2032.03,3052.14,2819.92,3213.02,599.86,598.37,30.25,0000 0000 0000 0000 000000
2017-05-02 07:34:02,0.07,1.05,0.00,22.08,26.67,30.05,14.73,49.08,1018.07,2032.29,3051.51,2819.26,3212.80,600.39,599.18,30.30,0000 0000 0000 0000 000000
2017-05-02 07:39:03,0.07,1.06,0.00,22.06,26.61,29.98,14.61,49.01,1018.08,2032.89,3050.87,2819.00,3212.06,600.13,598.88,30.35,0000 0000 0000 0000 000000
2017-05-02 07:44:05,0.01,1.06,0.00,22.08,26.56,29.88,14.61,48.98,1018.08,2032.99,3050.08,2818.99,3212.00,599.73,598.48,30.40,0000 0000 0000 0000 000000
2017-05-02 07:49:06,0.03,1.06,0.00,22.14,26.50,29.81,14.65,49.21,1018.08,2033.00,3049.51,2818.82,3211.79,600.30,598.91,30.45,0000 0000 0000 0000 000000
2017-05-02 07:54:07,0.05,1.06,0.00,22.21,26.44,29.69,14.67,49.26,1018.09,2033.06,3048.84,2818.10,3211.07,600.31,598.77,30.50,0000 0000 0000 0000 000000
2017-05-02 07:59:08,0.09,1.06,0.00,22.25,26.39,29.54,14.65,49.12,1018.12,2033.60,3048.05,2818.00,3210.99,600.31,598.80,30.55,0000 0000 0000 0000 000000
2017-05-02 08:04:10,0.04,1.07,0.00,22.32,26.35,29.47,14.56,48.86,1018.26,2033.98,3047.55,2817.92,3210.35,599.76,598.17,30.60,0000 0000 0000 0000 000000
2017-05-02 08:09:11,0.03,1.07,0.00,22.39,26.31,29.46,14.64,49.03,1018.50,2033.99,3046.78,2817.18,3209.99,600.01,598.42,30.65,0000 0000 0000 0000 000000
2017-05-02 08:14:12,0.02,1.07,0.00,22.47,26.27,29.47,14.61,48.99,1018.56,2033.99,3045.96,2816.99,3209.37,600.37,598.66,30.70,0000 0000 0000 0000 000000
2017-05-02 08:19:14,0.04,1.07,0.00,22.55,26.25,29.53,14.66,49.15,1018.57,2034.00,3045.07,2816.41,3208.95,600.35,598.44,30.75,0000 0000 0000 0000 000000
2017-05-02 08:24:15,0.04,1.08,0.00,22.61,26.23,29.59,14.57,48.98,1018.58,2034.05,3044.22,2816.01,3208.13,599.90,597.92,30.80,0000 0000 0000 0000 000000
2017-05-02 08:29:16,0.05,1.08,0.00,22.66,26.22,29.68,14.62,48.94,1018.59,2034.09,3043.38,2815.63,3207.63,600.15,597.99,30.85,0000 0000 0000 0000 000000
2017-05-02 08:34:17,0.03,1.08,0.00,22.73,26.22,29.73,14.60,48.98,1018.60,2034.20,3042.52,2815.02,3206.96,600.36,598.25,30.90,0000 0000 0000 0000 000000
2017-05-02 08:39:18,0.06,1.08,0.00,22.79,26.22,29.76,14.53,48.87,1018.60,2034.23,3041.63,2814.51,3206.14,599.76,597.27,30.95,0000 0000 0000 0000 000000
2017-05-02 08:44:19,0.03,1.09,0.00,22.83,26.22,29.81,14.61,48.75,1018.65,2034.34,3040.82,2814.00,3205.60,600.38,598.08,31.00,0000 0000 0000 0000 000000
2017-05-02 08:49:21,0.06,1.09,0.00,22.89,26.22,29.83,14.61,48.83,1018.85,2034.57,3040.00,2813.41,3204.97,600.29,597.85,31.05,0000 0000 0000 0000 000000
2017-05-02 08:54:22,0.02,1.09,0.00,22.94,26.24,29.87,14.56,48.77,1019.04,2034.35,3039.04,2812.94,3204.13,600.09,597.77,31.10,0000 0000 0000 0000 000000
2017-05-02 08:59:24,0.03,1.09,0.00,23.01,26.25,29.89,14.54,48.75,1019.06,2034.13,3038.04,2812.15,3203.35,599.85,597.28,31.15,0000 0000 0000 0000 000000
2017-05-02 09:04:25,0.04,1.09,0.00,23.05,26.27,29.92,14.55,48.83,1019.06,2034.05,3037.09,2811.64,3202.66,599.95,597.33,31.20,0000 0000 0000 0000 000000
2017-05-02 09:09:26,0.03,1.10,0.00,23.37,26.31,29.92,14.52,48.83,1019.06,2034.05,3036.21,2811.02,3201.96,600.31,596.98,31.25,0000 0000 0000 0000 000000
2017-05-02 09:14:28,0.05,1.10,0.00,23.27,26.34,29.92,14.54,48.77,1019.07,2034.01,3035.37,2810.35,3201.10,600.09,596.78,31.30,0000 0000 0000 0000 000000
2017-05-02 09:19:29,0.05,1.10,0.00,23.54,26.39,29.96,14.42,48.73,1019.09,2034.00,3034.43,2809.72,3200.21,599.96,596.37,31.35,0000 0000 0000 0000 000000
2017-05-02 09:24:30,0.05,1.10,0.00,23.70,26.43,30.05,14.41,48.61,1019.31,2034.00,3033.23,2808.92,3199.21,599.73,595.94,31.40,0000 0000 0000 0000 000000
2017-05-02 09:29:32,0.05,1.11,0.00,23.73,26.48,30.08,14.48,48.63,1019.50,2033.98,3032.20,2808.09,3198.43,599.80,596.13,31.45,0000 0000 0000 0000 000000
2017-05-02 09:34:33,0.04,1.11,0.00,23.52,26.51,30.14,14.59,48.59,1019.52,2033.86,3031.12,2807.39,3197.53,600.23,596.90,31.50,0000 0000 0000 0000 000000
2017-05-02 09:39:34,0.00,1.11,0.00,23.39,26.54,30.15,14.59,48.72,1019.54,2033.33,3029.95,2806.70,3196.68,599.92,596.83,31.55,0000 0000 0000 0000 000000
2017-05-02 09:44:35,0.03,1.11,0.00,23.34,26.56,30.19,14.53,48.73,1019.55,2033.03,3028.91,2806.01,3195.84,599.92,596.91,31.60,0000 0000 0000 0000 000000
2017-05-02 09:49:37,0.04,1.11,0.00,23.58,26.57,30.20,14.54,48.78,1019.55,2033.01,3028.05,2805.29,3195.04,600.01,596.60,31.65,0000 0000 0000 0000 000000
2017-05-02 09:54:38,0.03,1.11,0.00,23.55,26.60,30.18,14.60,48.59,1019.55,2033.00,3027.17,2804.89,3194.26,600.21,596.79,31.70,0000 0000 0000 0000 000000
2017-05-02 09:59:39,0.05,1.12,0.00,23.75,26.63,30.18,14.47,48.64,1019.56,2033.00,3026.27,2804.09,3193.56,600.11,596.36,31.75,0000 0000 0000 0000 000000
2017-05-02 10:04:41,0.05,1.12,0.00,23.96,26.66,30.22,14.44,48.54,1019.58,2033.00,3025.29,2803.50,3192.73,599.87,595.72,31.80,0000 0000 0000 0000 000000
2017-05-02 10:09:42,0.03,1.12,0.00,23.95,26.68,30.23,14.58,48.58,1019.63,2033.00,3024.30,2802.89,3191.94,600.39,596.25,31.85,0000 0000 0000 0000 000000
2017-05-02 10:14:43,0.05,1.13,0.00,24.06,26.70,30.24,14.49,48.50,1019.92,2032.97,3023.33,2802.09,3191.08,599.75,595.58,31.90,0000 0000 0000 0000 000000
2017-05-02 10:19:45,0.06,1.13,0.00,24.08,26.72,30.25,14.48,48.54,1020.01,2032.96,3022.27,2801.46,3190.18,599.77,595.62,31.95,0000 0000 0000 0000 000000
2017-05-02 10:24:46,0.03,1.13,0.00,24.13,26.74,30.25,14.44,48.54,1020.01,2032.92,3021.30,2800.94,3189.50,599.87,595.67,32.00,0000 0000 0000 0000 000000
2017-05-02 10:29:48,0.05,1.13,0.00,24.15,26.75,30.25,14.44,48.69,1020.02,2032.87,3020.20,2800.12,3188.64,599.70,595.54,32.05,0000 0000 0000 0000 000000
2017-05-02 10:34:49,0.02,1.13,0.00,24.19,26.76,30.25,14.40,48.64,1020.03,2032.71,3019.24,2799.64,3187.87,599.60,595.44,32.11,0000 0000 0000 0000 000000
2017-05-02 10:39:50,0.02,1.14,0.00,24.18,26.77,30.24,14.53,48.59,1020.03,2032.37,3018.02,2798.91,3186.95,600.60,596.31,32.16,0000 0000 0000 0000 000000
2017-05-02 10:44:52,0.05,1.14,0.00,24.23,26.77,30.24,14.47,48.67,1020.03,2032.24,3016.89,2798.10,3186.08,599.87,595.43,32.21,0000 0000 0000 0000 000000
2017-05-02 10:49:53,0.05,1.14,0.00,24.22,26.77,30.22,14.46,48.68,1020.03,2032.12,3015.90,2797.53,3185.22,599.96,595.56,32.26,0000 0000 0000 0000 000000
2017-05-02 10:54:54,0.04,1.14,0.00,24.22,26.77,30.21,14.47,48.58,1020.04,2032.18,3014.92,2796.97,3184.57,600.00,595.58,32.31,0000 0000 0000 0000 000000
2017-05-02 10:59:55,0.06,1.15,0.00,24.01,26.77,30.22,14.56,48.67,1020.04,2032.29,3013.90,2796.22,3183.82,600.21,596.27,32.36,0000 0000 0000 0000 000000
2017-05-02 11:04:57,0.04,1.15,0.00,23.67,26.76,30.23,14.43,48.66,1020.05,2032.41,3012.86,2795.82,3183.02,599.62,596.32,32.41,0000 0000 0000 0000 000000
2017-05-02 11:09:58,0.04,1.15,0.00,23.52,26.75,30.20,14.64,48.76,1020.07,2032.23,3011.79,2795.10,3182.14,600.08,597.13,32.46,0000 0000 0000 0000 000000
2017-05-02 11:14:59,0.08,1.15,0.00,23.48,26.74,30.28,14.67,48.82,1020.08,2032.40,3010.78,2794.38,3181.48,600.56,597.62,32.51,0000 0000 0000 0000 000000
2017-05-02 11:20:00,0.05,1.16,0.00,23.51,26.72,30.32,14.58,48.80,1020.25,2032.60,3009.72,2793.92,3180.77,600.23,597.40,32.56,0000 0000 0000 0000 000000
2017-05-02 11:25:02,0.05,1.16,0.00,23.69,26.72,30.14,14.50,48.67,1020.46,2032.71,3008.74,2793.13,3179.92,600.35,597.29,32.61,0000 0000 0000 0000 000000
2017-05-02 11:30:03,0.02,1.16,0.00,23.53,26.72,30.12,14.53,48.78,1020.52,2032.39,3007.74,2792.41,3179.02,599.72,596.95,32.66,0000 0000 0000 0000 000000
2017-05-02 11:35:05,0.05,1.16,0.00,23.83,26.72,30.15,14.57,48.66,1020.52,2032.38,3006.83,2791.86,3178.13,600.19,596.84,32.71,0000 0000 0000 0000 000000
2017-05-02 11:40:06,0.03,1.17,0.00,23.91,26.75,30.18,14.53,48.62,1020.52,2032.17,3005.74,2791.04,3177.26,600.00,596.50,32.76,0000 0000 0000 0000 000000
2017-05-02 11:45:07,0.06,1.17,0.00,23.99,26.75,30.20,14.52,48.61,1020.52,2032.07,3004.60,2790.21,3176.36,600.05,596.41,32.81,0000 0000 0000 0000 000000
2017-05-02 11:50:08,0.06,1.17,0.00,24.10,26.75,30.21,14.46,48.56,1020.52,2032.04,3003.49,2789.55,3175.52,600.06,596.30,32.86,0000 0000 0000 0000 000000
2017-05-02 11:55:09,0.04,1.17,0.00,24.06,26.77,30.22,14.52,48.72,1020.52,2032.04,3002.32,2788.86,3174.59,600.18,596.43,32.91,0000 0000 0000 0000 000000
2017-05-02 12:00:10,0.06,1.18,0.00,24.16,26.77,30.23,14.41,48.49,1020.53,2032.04,3001.16,2788.06,3173.71,599.86,595.86,32.97,0000 0000 0000 0000 000000
2017-05-02 12:05:12,0.05,1.18,0.00,24.18,26.77,30.22,14.48,48.51,1020.54,2032.03,3000.06,2787.33,3172.86,600.00,595.88,33.02,0000 0000 0000 0000 000000
2017-05-02 12:10:13,0.05,1.18,0.00,24.18,26.77,30.22,14.48,48.58,1020.55,2032.07,2998.95,2786.79,3172.03,599.83,595.93,33.07,0000 0000 0000 0000 000000
2017-05-02 12:15:15,0.05,1.19,0.00,24.17,26.77,30.21,14.57,48.53,1020.55,2032.08,2997.84,2786.01,3171.15,600.21,596.19,33.12,0000 0000 0000 0000 000000
2017-05-02 12:20:16,0.07,1.19,0.00,24.17,26.77,30.20,14.54,48.53,1020.57,2032.07,2996.72,2785.22,3170.28,600.26,596.19,33.17,0000 0000 0000 0000 000000
2017-05-02 12:25:17,0.05,1.19,0.00,24.02,26.76,30.20,14.56,48.55,1020.58,2032.04,2995.62,2784.66,3169.48,600.39,596.55,33.22,0000 0000 0000 0000 000000
2017-05-02 12:30:18,0.04,1.19,0.00,23.70,26.75,30.20,14.53,48.45,1020.71,2032.05,2994.45,2783.99,3168.61,600.21,597.23,33.27,0000 0000 0000 0000 000000
2017-05-02 12:35:20,0.05,1.20,0.00,23.51,26.74,30.20,14.50,48.57,1020.85,2032.02,2993.33,2783.19,3167.85,599.83,597.31,33.32,0000 0000 0000 0000 000000
2017-05-02 12:40:21,0.06,1.20,0.00,23.44,26.72,30.30,14.57,48.71,1020.93,2032.05,2992.17,2782.53,3167.00,600.10,597.62,33.37,0000 0000 0000 0000 000000
2017-05-02 12:45:22,0.04,1.20,0.00,23.42,26.70,30.36,14.53,48.59,1020.98,2032.06,2991.00,2781.92,3166.10,599.51,597.28,33.42,0000 0000 0000 0000 000000
2017-05-02 12:50:24,0.06,1.21,0.00,23.52,26.70,30.30,14.48,48.48,1021.00,2032.09,2989.96,2781.08,3165.26,599.92,597.60,33.47,0000 0000 0000 0000 000000
2017-05-02 12:55:26,0.06,1.21,0.00,23.60,26.69,30.09,14.54,48.49,1021.01,2032.16,2988.89,2780.51,3164.55,600.06,597.46,33.52,0000 0000 0000 0000 000000